FW7889 Weather Reports


time (UTC)temp
C
wind
direction
speed
KPH
gust
KPH
rain 1hr
cm
rain 24hr
cm
rain mn
cm
humidity
%
barometer
mb
20260506202202 6 326 1.6 3.2 0.00 2.03 2.03 99 1061.9
20260506201202 7 332 4.8 8.0 0.00 2.03 2.03 99 1061.6
20260506200202 6 338 4.8 4.8 0.00 2.03 2.03 99 1061.9
20260506195200 7 317 3.2 3.2 0.13 2.03 2.03 99 1061.9
20260506194200 7 358 8.0 9.7 0.00 2.01 2.01 99 1061.9
20260506193200 7 308 1.6 1.6 0.18 2.01 2.01 99 1061.6
20260506192200 7 318 3.2 3.2 0.00 1.98 1.98 99 1061.8
20260506191158 7 317 4.8 4.8 0.00 1.98 1.98 99 1061.8
20260506190158 7 296 0.0 0.0 0.00 1.98 1.98 99 1061.5
20260506185157 7 338 3.2 3.2 0.13 1.98 1.98 99 1061.3
20260506184152 7 309 0.0 1.6 0.00 1.96 1.96 99 1061.1
20260506183151 7 306 1.6 3.2 0.00 1.96 1.96 99 1061.5
20260506182151 6 252 0.0 0.0 0.00 1.96 1.96 99 1061.4
20260506181146 6 78 4.8 8.0 0.00 1.96 1.96 99 1060.9
20260506180145 6 307 0.0 0.0 0.00 1.96 1.96 99 1061.1
20260506175144 6 286 0.0 0.0 0.00 1.96 1.96 99 1061.2
20260506174139 6 300 0.0 1.6 0.00 1.96 1.96 99 1061.1
20260506173139 6 55 1.6 1.6 0.00 1.96 1.96 99 1061.4
20260506172138 6 297 0.0 1.6 0.00 1.96 1.96 99 1061.3
20260506171134 6 2 1.6 1.6 0.18 1.96 1.96 99 1061.1
20260506170128 6 90 4.8 4.8 0.00 1.93 1.93 99 1061.1
20260506165127 6 303 0.0 1.6 0.13 1.93 1.93 99 1061.2
20260506164127 6 310 0.0 1.6 0.18 1.91 1.91 99 1061.6
20260506163123 5 315 1.6 3.2 0.13 1.88 1.88 99 1061.5
20260506162123 5 314 1.6 1.6 0.18 1.85 1.85 99 1061.8
20260506161121 5 78 0.0 0.0 0.13 1.83 1.83 99 1061.9
20260506160120 5 78 6.4 8.0 0.00 1.80 1.80 99 1061.5
20260506155116 5 59 1.6 3.2 0.13 1.78 1.78 99 1061.6
20260506152924 5 288 0.0 0.0 0.18 1.75 1.75 99 1061.6
20260506151920 5 357 1.6 1.6 0.18 1.73 1.73 99 1061.2
20260506150920 5 311 0.0 1.6 0.13 1.70 1.70 99 1061.5
20260506145919 5 292 0.0 0.0 0.18 1.68 1.68 99 1061.4
20260506144918 5 319 1.6 1.6 0.18 1.63 1.63 99 1061.3
20260506143913 5 86 3.2 3.2 0.30 1.60 1.60 99 1061.3
20260506142908 5 320 0.0 1.6 0.30 1.55 1.55 99 1061.6
20260506141904 5 295 0.0 0.0 0.30 1.50 1.50 99 1061.9
20260506140859 4 75 4.8 8.0 0.48 1.45 1.45 99 1061.9
20260506135859 4 31 1.6 1.6 0.30 1.37 1.37 99 1061.8
20260506134858 4 314 1.6 1.6 0.43 1.32 1.32 99 1061.6
20260506133857 4 323 3.2 3.2 0.30 1.24 1.24 99 1061.8
20260506132855 4 317 1.6 3.2 0.30 1.17 1.17 99 1061.6
20260506131851 5 320 1.6 1.6 0.30 1.12 1.12 99 1061.6
20260506130850 5 313 4.8 4.8 0.30 1.07 1.07 99 1061.4
20260506125850 5 330 3.2 3.2 0.13 0.99 0.99 99 1061.1
20260506124846 5 311 1.6 1.6 0.00 0.94 0.94 99 1061.4
20260506123846 5 280 0.0 0.0 0.18 0.91 0.91 99 1061.5
20260506122842 5 74 3.2 4.8 0.13 0.89 0.89 99 1061.6
20260506121837 4 97 8.0 9.7 0.18 0.86 0.86 99 1061.6
20260506120836 4 333 1.6 1.6 0.30 0.84 0.84 99 1062.0
20260506115831 4 328 1.6 1.6 0.18 0.79 0.79 99 1062.3
20260506114827 4 61 4.8 9.7 0.30 0.76 0.76 99 1061.9
20260506113823 5 66 3.2 4.8 0.30 0.71 0.71 99 1062.4
20260506112822 5 72 3.2 4.8 0.13 0.66 0.66 99 1062.6
20260506111817 5 287 0.0 0.0 0.30 0.61 0.61 99 1063.1
20260506110812 5 308 1.6 1.6 0.30 0.56 0.56 99 1063.0
20260506105812 5 316 3.2 3.2 0.30 0.51 0.51 99 1063.0
20260506104806 5 326 3.2 3.2 0.30 0.43 0.43 99 1062.8
20260506103801 5 298 1.6 3.2 0.13 0.38 0.38 99 1062.6
20260506102801 5 289 0.0 0.0 0.00 0.36 0.36 99 1062.3
20260506101756 5 290 0.0 0.0 0.00 0.36 0.36 99 1062.4
20260506100756 5 58 1.6 1.6 0.18 0.36 0.36 99 1062.7
20260506095753 5 282 0.0 0.0 0.30 0.33 0.33 99 1062.8
20260506094751 5 84 1.6 1.6 0.00 0.28 0.28 99 1062.6
20260506093748 5 310 1.6 1.6 0.00 0.28 0.28 99 1062.5
20260506092748 5 291 0.0 1.6 0.00 0.28 0.28 99 1062.8
20260506091748 5 285 0.0 0.0 0.13 0.28 0.28 99 1062.8
20260506090744 5 314 3.2 3.2 0.00 0.25 0.25 99 1062.8
20260506085743 5 294 0.0 0.0 0.18 0.25 0.25 99 1063.1
20260506084742 5 322 0.0 1.6 0.00 0.23 0.23 99 1063.0
20260506083741 5 289 0.0 0.0 0.00 0.23 0.23 99 1062.9
20260506082736 6 323 1.6 1.6 0.00 0.23 0.23 99 1062.6
20260506081735 6 319 3.2 3.2 0.00 0.23 0.23 99 1063.2
20260506080731 6 322 1.6 3.2 0.00 0.23 0.23 99 1062.6
20260506072725 6 287 0.0 0.0 0.00 0.20 0.20 99 1062.8
20260506071720 6 79 4.8 4.8 0.00 0.20 0.20 99 1062.8
20260506070720 6 95 4.8 4.8 0.30 0.20 0.20 99 1063.2
20260506061708 7 289 0.0 0.0 0.00 0.15 0.15 99 1063.4
20260506060704 7 312 1.6 1.6 0.00 0.15 0.15 99 1063.7
20260506050654 7 283 0.0 1.6 0.00 0.15 0.15 99 1064.3
20260506044648 8 284 0.0 0.0 0.18 0.13 0.13 99 1064.2
20260506043648 8 274 0.0 0.0 0.13 0.10 0.10 99 1064.3
20260506042645 7 276 0.0 0.0 0.00 0.08 0.08 99 1064.7
20260506041641 8 307 3.2 3.2 0.13 0.05 0.05 99 1064.3
20260506040641 8 278 0.0 0.0 0.18 0.03 0.03 99 1064.7
20260506035641 8 278 0.0 1.6 0.13 0.97 0.97 99 1064.6
20260506034640 8 285 0.0 0.0 0.18 0.94 0.94 99 1064.1
20260506033640 8 315 3.2 3.2 0.00 0.91 0.91 99 1064.6
20260506032640 8 269 0.0 0.0 0.00 0.91 0.91 99 1064.7
20260506031639 8 294 1.6 1.6 0.48 0.89 0.89 99 1064.1
20260506030635 8 270 3.2 3.2 0.18 0.81 0.81 99 1064.3
20260506025634 8 294 0.0 0.0 0.00 0.79 0.79 99 1063.7
20260506024634 8 287 0.0 0.0 0.00 0.79 0.79 99 1063.6
20260506023632 8 277 0.0 0.0 0.00 0.79 0.79 99 1063.5
20260506022632 8 285 0.0 0.0 0.00 0.79 0.79 99 1064.2
20260506021627 9 307 0.0 0.0 0.13 0.79 0.79 99 1063.9
20260506020627 9 276 0.0 0.0 0.00 0.76 0.76 99 1064.5
20260506015622 9 291 0.0 0.0 0.00 0.76 0.76 99 1064.1
20260506014617 9 295 0.0 0.0 0.18 0.76 0.76 99 1064.1
20260506013617 9 279 0.0 0.0 0.30 0.74 0.74 99 1064.1
20260506012615 9 295 1.6 1.6 0.13 0.69 0.69 99 1064.1
20260506011615 10 321 1.6 3.2 0.18 0.66 0.66 98 1063.5
20260506010611 10 316 1.6 3.2 0.61 0.64 0.64 95 1063.6
20260506005610 11 321 4.8 4.8 0.00 0.51 0.51 88 1063.5
20260506004609 12 324 4.8 4.8 0.00 0.51 0.51 86 1063.0
20260506003608 12 321 4.8 8.0 0.00 0.51 0.51 85 1062.9
20260506002606 12 282 1.6 1.6 0.00 0.51 0.51 91 1062.9
20260506001604 12 276 1.6 1.6 0.00 0.51 0.51 93 1062.5
20260506000559 12 300 3.2 3.2 0.00 0.51 0.51 92 1062.2
20260505235554 12 296 4.8 8.0 0.00 0.51 0.51 99 1062.3
20260505234554 12 285 1.6 1.6 0.00 0.51 0.51 99 1062.1
20260505233554 12 257 1.6 3.2 0.00 0.51 0.51 99 1062.0
20260505232549 12 265 1.6 1.6 0.00 0.51 0.51 99 1061.6
20260505231548 12 266 0.0 0.0 0.00 0.51 0.51 99 1061.2
20260505230544 12 260 0.0 0.0 0.00 0.51 0.51 99 1061.1
20260505225543 12 266 0.0 0.0 0.00 0.51 0.51 99 1061.2
20260505224542 12 272 0.0 0.0 0.66 0.51 0.51 99 1061.2
20260505223542 13 255 4.8 4.8 0.61 0.41 0.41 99 1061.4
20260505222540 14 280 1.6 3.2 1.19 0.30 0.30 97 1061.4
20260505221539 15 267 1.6 1.6 0.00 0.10 0.10 91 1060.8
20260505220539 17 240 6.4 8.0 0.00 0.10 0.10 80 1060.3
20260505215535 17 260 3.2 3.2 0.00 0.10 0.10 78 1060.1
20260505214530 17 320 3.2 3.2 0.00 0.10 0.10 77 1060.0
20260505213530 18 250 4.8 4.8 0.00 0.10 0.10 76 1060.2
20260505212528 18 251 3.2 3.2 0.00 0.10 0.10 76 1059.9
20260505211523 17 291 1.6 1.6 0.00 0.10 0.10 77 1059.7
20260505210522 17 289 3.2 3.2 0.00 0.10 0.10 77 1059.8
20260505205517 17 268 1.6 1.6 0.00 0.10 0.10 77 1060.1
20260505204517 17 256 4.8 4.8 0.00 0.10 0.10 78 1060.2
20260505203517 17 279 4.8 4.8 0.00 0.10 0.10 78 1060.2
20260505202516 17 255 4.8 4.8 0.00 0.10 0.10 81 1060.1